Weather History for Litchfield, MN

Change the Weather History Date:

Monday, August 11, 2014

  Actual Average Record
Temperature  
Mean Temperature 70 °F -  
Max Temperature 77 °F 81 °F 95 °F (1988)
Min Temperature 62 °F 56 °F 33 °F (2008)
Cooling Degree Days 4    
Growing Degree Days 20 (Base 50)    
Moisture  
Dew Point 58 °F    
Average Humidity 72    
Maximum Humidity 100    
Minimum Humidity 41    
Precipitation  
Precipitation 0.00 in - - ()
Sea Level Pressure  
Sea Level Pressure 30.06 in    
Wind  
Wind Speed 12 mph (NNW)    
Max Wind Speed 21 mph    
Max Gust Speed 29 mph    
Visibility 10 miles    
Events      
Averages and records for this station are not official NWS values.
T = Trace of Precipitation, MM = Missing Value Source: NWS Daily Summary

Daily Weather History Graph

Daily Weather History Graph

Search for Another Location

Airport:

Trip Planner

Search our weather history database for the weather conditions in past years. The results will help you decide how hot, cold, wet, or windy it might be!

Date:

Astronomy

Aug. 11, 2014 Rise Set
Actual Time 6:14 AM CDT 8:30 PM CDT
Civil Twilight 5:42 AM CDT 9:03 PM CDT
Nautical Twilight 5:01 AM CDT 9:43 PM CDT
Astronomical Twilight 4:16 AM CDT 10:28 PM CDT
Moon 8:52 PM CDT (8/11) 7:26 AM CDT (8/11)
Length of Visible Light 15h 20m
Length of Day
14h 15m
Full, 99% of the Moon is Illuminated
Aug 11
Full
Aug 17
Last Quarter
Aug 25
New
Sep 2
First Quarter
Sep 8
Full

Hourly Weather History & Observations

Time (CDT) Temp. Dew Point Humidity Pressure Visibility Wind Dir Wind Speed Gust Speed Precip Events Conditions
12:13 AM 69.8 °F 68.0 °F 94% 30.01 in 10.0 mi NW 10.4 mph - N/A   Overcast
12:32 AM 69.8 °F 68.0 °F 94% 30.01 in 10.0 mi NNW 12.7 mph - N/A   Overcast
12:53 AM 69.8 °F 68.0 °F 94% 30.01 in 10.0 mi NNW 12.7 mph - N/A   Overcast
1:12 AM 69.8 °F 66.2 °F 88% 30.00 in 10.0 mi NNW 12.7 mph - N/A   Overcast
1:33 AM 68.0 °F 66.2 °F 94% 30.00 in 10.0 mi NW 11.5 mph - N/A   Mostly Cloudy
1:52 AM 66.2 °F 64.4 °F 94% 30.00 in 10.0 mi NNW 12.7 mph 18.4 mph N/A   Scattered Clouds
2:12 AM 66.2 °F 64.4 °F 94% 30.01 in 10.0 mi NNW 12.7 mph 18.4 mph N/A   Mostly Cloudy
2:33 AM 66.2 °F 62.6 °F 88% 30.01 in 10.0 mi NNW 12.7 mph 18.4 mph N/A   Overcast
2:53 AM 66.2 °F 62.6 °F 88% 30.01 in 10.0 mi NNW 12.7 mph - N/A   Mostly Cloudy
3:12 AM 64.4 °F 62.6 °F 94% 30.01 in 10.0 mi NNW 11.5 mph - N/A   Scattered Clouds
3:32 AM 64.4 °F 62.6 °F 94% 30.01 in 10.0 mi NNW 12.7 mph 17.3 mph N/A   Scattered Clouds
3:53 AM 64.4 °F 62.6 °F 94% 30.01 in 10.0 mi NNW 11.5 mph - N/A   Clear
4:13 AM 64.4 °F 62.6 °F 94% 30.01 in 10.0 mi NNW 10.4 mph - N/A   Clear
4:32 AM 64.4 °F 62.6 °F 94% 30.01 in 10.0 mi NNW 12.7 mph 16.1 mph N/A   Scattered Clouds
4:53 AM 64.4 °F 62.6 °F 94% 30.01 in 10.0 mi NW 6.9 mph - N/A   Mostly Cloudy
5:13 AM 64.4 °F 64.4 °F 100% 30.00 in 10.0 mi WNW 6.9 mph - N/A   Scattered Clouds
5:32 AM 64.4 °F 62.6 °F 94% 30.00 in 10.0 mi NW 9.2 mph - N/A   Mostly Cloudy
5:53 AM 64.4 °F 62.6 °F 94% 30.01 in 10.0 mi NW 11.5 mph 16.1 mph N/A   Scattered Clouds
6:13 AM 62.6 °F 62.6 °F 100% 30.02 in 10.0 mi NW 10.4 mph - N/A   Scattered Clouds
6:32 AM 62.6 °F 62.6 °F 100% 30.02 in 10.0 mi NW 10.4 mph - N/A   Clear
6:53 AM 64.4 °F 60.8 °F 88% 30.02 in 10.0 mi NNW 11.5 mph 18.4 mph N/A   Clear
7:13 AM 62.6 °F 60.8 °F 94% 30.03 in 10.0 mi NNW 10.4 mph 16.1 mph N/A   Scattered Clouds
7:32 AM 64.4 °F 60.8 °F 88% 30.04 in 10.0 mi NW 11.5 mph 17.3 mph N/A   Mostly Cloudy
7:53 AM 64.4 °F 60.8 °F 88% 30.04 in 10.0 mi NNW 13.8 mph - N/A   Scattered Clouds
8:13 AM 64.4 °F 60.8 °F 88% 30.05 in 10.0 mi NNW 13.8 mph 19.6 mph N/A   Clear
8:32 AM 66.2 °F 60.8 °F 83% 30.05 in 10.0 mi NNW 13.8 mph - N/A   Clear
8:53 AM 66.2 °F 62.6 °F 88% 30.06 in 10.0 mi NNW 16.1 mph - N/A   Clear
9:13 AM 68.0 °F 62.6 °F 83% 30.06 in 10.0 mi NNW 13.8 mph - N/A   Scattered Clouds
9:32 AM 69.8 °F 62.6 °F 78% 30.06 in 10.0 mi NNW 12.7 mph - N/A   Scattered Clouds
9:53 AM 69.8 °F 62.6 °F 78% 30.06 in 10.0 mi NNW 16.1 mph - N/A   Scattered Clouds
10:12 AM 69.8 °F 62.6 °F 78% 30.07 in 10.0 mi North 15.0 mph - N/A   Clear
10:33 AM 71.6 °F 60.8 °F 69% 30.08 in 10.0 mi North 15.0 mph 21.9 mph N/A   Clear
10:53 AM 71.6 °F 60.8 °F 69% 30.08 in 10.0 mi NNW 17.3 mph 23.0 mph N/A   Clear
11:12 AM 73.4 °F 60.8 °F 65% 30.08 in 10.0 mi NNW 16.1 mph - N/A   Clear
11:33 AM 73.4 °F 60.8 °F 65% 30.08 in 10.0 mi NNW 17.3 mph 21.9 mph N/A   Clear
11:53 AM 73.4 °F 59.0 °F 61% 30.08 in 10.0 mi NNW 16.1 mph 24.2 mph N/A   Clear
12:12 PM 73.4 °F 59.0 °F 61% 30.08 in 10.0 mi NNW 13.8 mph 25.3 mph N/A   Clear
12:33 PM 73.4 °F 57.2 °F 57% 30.08 in 10.0 mi North 18.4 mph 21.9 mph N/A   Clear
12:53 PM 75.2 °F 57.2 °F 53% 30.08 in 10.0 mi NNW 19.6 mph 23.0 mph N/A   Clear
1:12 PM 75.2 °F 55.4 °F 50% 30.08 in 10.0 mi North 17.3 mph 28.8 mph N/A   Scattered Clouds
1:33 PM 75.2 °F 55.4 °F 50% 30.08 in 10.0 mi NNW 16.1 mph 20.7 mph N/A   Scattered Clouds
1:53 PM 75.2 °F 53.6 °F 47% 30.08 in 10.0 mi North 18.4 mph 26.5 mph N/A   Scattered Clouds
2:12 PM 75.2 °F 53.6 °F 47% 30.08 in 10.0 mi NNW 20.7 mph 26.5 mph N/A   Scattered Clouds
2:33 PM 75.2 °F 51.8 °F 44% 30.08 in 10.0 mi North 12.7 mph 19.6 mph N/A   Clear
2:52 PM 75.2 °F 51.8 °F 44% 30.08 in 10.0 mi NNW 17.3 mph 25.3 mph N/A   Scattered Clouds
3:13 PM 75.2 °F 51.8 °F 44% 30.09 in 10.0 mi NNW 17.3 mph 26.5 mph N/A   Scattered Clouds
3:33 PM 75.2 °F 51.8 °F 44% 30.08 in 10.0 mi NNW 16.1 mph - N/A   Scattered Clouds
3:52 PM 75.2 °F 51.8 °F 44% 30.08 in 10.0 mi North 13.8 mph 20.7 mph N/A   Scattered Clouds
4:13 PM 77.0 °F 51.8 °F 41% 30.08 in 10.0 mi NW 17.3 mph 21.9 mph N/A   Mostly Cloudy
4:32 PM 77.0 °F 51.8 °F 41% 30.08 in 10.0 mi NNW 12.7 mph 21.9 mph N/A   Scattered Clouds
4:53 PM 77.0 °F 51.8 °F 41% 30.08 in 10.0 mi NW 15.0 mph 24.2 mph N/A   Scattered Clouds
5:32 PM 75.2 °F 51.8 °F 44% 30.07 in 10.0 mi NNW 18.4 mph 23.0 mph N/A   Scattered Clouds
5:53 PM 75.2 °F 53.6 °F 47% 30.08 in 10.0 mi NNW 12.7 mph 17.3 mph N/A   Scattered Clouds
6:13 PM 73.4 °F 53.6 °F 50% 30.08 in 10.0 mi North 15.0 mph 19.6 mph N/A   Scattered Clouds
6:32 PM 73.4 °F 53.6 °F 50% 30.07 in 10.0 mi NNW 12.7 mph - N/A   Scattered Clouds
6:53 PM 73.4 °F 53.6 °F 50% 30.08 in 10.0 mi NNW 10.4 mph 16.1 mph N/A   Clear
7:12 PM 73.4 °F 53.6 °F 50% 30.08 in 10.0 mi NNW 12.7 mph - N/A   Scattered Clouds
7:33 PM 71.6 °F 53.6 °F 53% 30.08 in 10.0 mi NNW 8.1 mph 17.3 mph N/A   Scattered Clouds
7:52 PM 71.6 °F 53.6 °F 53% 30.08 in 10.0 mi NNW 10.4 mph 18.4 mph N/A   Scattered Clouds
8:13 PM 69.8 °F 53.6 °F 56% 30.08 in 10.0 mi North 8.1 mph - N/A   Clear
8:33 PM 68.0 °F 53.6 °F 60% 30.09 in 10.0 mi NNW 6.9 mph - N/A   Clear
8:52 PM 64.4 °F 53.6 °F 68% 30.09 in 10.0 mi NNW 5.8 mph - N/A   Clear
9:13 PM 64.4 °F 53.6 °F 68% 30.09 in 10.0 mi NNW 4.6 mph - N/A   Clear
9:33 PM 66.2 °F 53.6 °F 64% 30.10 in 10.0 mi NW 4.6 mph - N/A   Clear
9:52 PM 64.4 °F 53.6 °F 68% 30.10 in 10.0 mi NW 4.6 mph - N/A   Clear
10:13 PM 62.6 °F 55.4 °F 77% 30.10 in 10.0 mi NW 4.6 mph - N/A   Clear
10:33 PM 62.6 °F 55.4 °F 77% 30.10 in 10.0 mi NW 5.8 mph - N/A   Scattered Clouds
10:53 PM 62.6 °F 55.4 °F 77% 30.10 in 10.0 mi NW 5.8 mph - N/A   Clear
11:12 PM 62.6 °F 55.4 °F 77% 30.10 in 10.0 mi NW 6.9 mph - N/A   Clear
11:33 PM 62.6 °F 55.4 °F 77% 30.10 in 10.0 mi NW 6.9 mph - N/A   Scattered Clouds
11:53 PM 62.6 °F 55.4 °F 77% 30.10 in 10.0 mi NW 5.8 mph - N/A   Clear